Flag for Canada Weather past 2 weeks in Arviat, Nunavut, Canada

Now
34 °F

Low clouds.


Feels Like: 21 °F
Forecast: 24 / 33 °F
Wind: 25 mph from North

Location: Arviat Airport

Current Time: May 22, 2015 at 10:19:05 AM

Latest Report: May 22, 2015 at 10:00 AM


Visibility: 15 mi

Pressure: 29.86 "Hg

Humidity: 93%

Dew point: 32 °F

Location of ArviatLocation

Historic Weather in Arviat — Graph

°F

Arviat temperature yesterday

Maximum temperature yesterday: 36 °F (at 4:00 PM)
Minimum temperature yesterday: 21 °F (at 3:00 AM)
Average temperature yesterday: 29 °F

Past Weeks' High & Low Weather Summary

 TemperatureHumidityPressure
High43 °F (May 15, 6:00 PM)100% (May 7, 11:00 PM)30.53 "Hg (May 7, 11:00 PM)
Low1 °F (May 10, 5:00 AM)69% (May 10, 3:00 PM)29.51 "Hg (May 15, 4:00 PM)
Average25 °F87%30.18 "Hg
* Reported May 7 9:00 AM — May 22 9:00 AM, Arviat, Weather by CustomWeather, © 2015

Note: Actual official high and low records may vary slightly from our data, if they occured in-between our weather recording intervals... More about our weather records

Advertising

Arviat weather history for previous 24 hours

 ConditionsComfort  
Time TempWeatherWind HumidityBarometerVisibility
9:00 AM
Fri, May 22
34 °FLow clouds.29 mph93%29.84 "Hg15 mi
8:00 AM34 °FLow clouds.23 mph93%29.83 "Hg15 mi
7:00 AM32 °FLow clouds.23 mph100%29.82 "Hg15 mi
6:00 AM34 °FSunny.16 mph93%29.80 "Hg9 mi
5:00 AM34 °FPassing clouds.10 mph93%29.79 "Hg9 mi
4:00 AM34 °FPassing clouds.13 mph93%29.80 "Hg9 mi
3:00 AM32 °FPassing clouds.15 mph93%29.82 "Hg9 mi
2:00 AM32 °FPassing clouds.14 mph93%29.84 "Hg9 mi
1:00 AM30 °FPassing clouds.15 mph93%29.88 "Hg9 mi
12:00 AM32 °FClear.20 mph87%29.90 "Hg9 mi
11:00 PM
Thu, May 21
32 °FPassing clouds.20 mph87%29.93 "Hg9 mi
10:00 PM32 °FSunny.20 mph87%29.96 "Hg9 mi
9:00 PM32 °FSunny.17 mph93%29.99 "Hg9 mi
8:00 PM34 °FSunny.16 mph87%30.02 "Hg9 mi
7:00 PM34 °FChilly.16 mph87%30.05 "Hg9 mi
6:00 PM36 °FSunny.16 mph87%30.08 "Hg9 mi
5:00 PM36 °FPassing clouds.16 mph81%30.10 "Hg15 mi
4:00 PM36 °FPassing clouds.14 mph81%30.14 "Hg15 mi
3:00 PM34 °FSunny.14 mph87%30.15 "Hg15 mi
2:00 PM34 °FSunny.15 mph87%30.17 "Hg15 mi
1:00 PM34 °FSunny.10 mph87%30.19 "Hg15 mi
12:00 PM34 °FSunny.6 mph75%30.20 "Hg15 mi
11:00 AM30 °FSunny.6 mph86%30.22 "Hg15 mi
10:00 AM28 °FSunny.5 mph80%30.23 "Hg15 mi
Weather by CustomWeather, © 2015

See weather overviewHow to use our weather pages